Probability
0 0 0 0 0 0 0 0 0 0 0 0 0 0 0 0 0 0 0 0 0 0 0 0 0 0 0 0 0 0 0 0 0 0 0 0 0 0 0 0 0 0 0 0
0 0 0 0 0 0 0 0 0 0 0 0 0 0 0 0 0 0 0 0 0 0 0 0 0 0 0 0 0 0 0 0 0 0 0 0 0 0 0 0 0 0 0 0
0 0 0 0 0 0 0 0 0 0 0 0 0 0 0 0 0 0 0 0 0 0 0 0 0 0 0 0 0 0 0 0 0 0 0 0 0 0 0 0 0 0 0 0
0 0 0 0 0 0 0 0 0 0 0 0 0 0 0 0 0 0 0 0 0 0 0 0 0 0 0 0 0 0 0 0 0 0 0 0 0 0 0 0 0 0 0 0
0 0 0 0 0 0 0 0 0 0 0 0 0 0 0 0 0 0 0 0 0 0 0 0 0 0 0 0 0 0 0 0 0 0 0 0 0 0 0 0 0 0 0 0
0 0 0 0 0 0 0 0 0 0 0 0 0 0 0 0 0 0 0 0 0 0 0 0 0 0 0 0 0 0 0 0 0 0 0 0 0 0 0 0 0 0 0 0
0 0 0 0 0 0 0 0 0 0 0 0 0 0 0 0 0 0 0 0 0 0 0 0 0 0 0 0 0 0 0 0 0 0 0 0 0 0 0 0 0 0 0 0
0 0 0 0 0 0 0 0 0 0 0 0 0 0 0 0 0 0 0 0 0 0 0 0 0 0 0 0 0 0 0 0 0 0 0 0 0 0 0 0 0 0 0 0
0 0 0 0 0 0 0 0 0 0 0 0 0 0 0 0 0 0 0 0 0 0 0 0 0 0 0 0 0 0 0 0 0 0 0 0 0 0 0 0 0 0 0 0
0 0 0 0 0 0 0 0 0 0 0 0 0 0 0 0 0 0 0 0 0 0 0 0 0 0 0 0 0 0 0 0 0 0 0 0 0 0 0 0 0 0 0 0
0 0 0 0 0 0 0 0 0 0 0 0 0 0 0 0 0 0 0 0 0 0 0 0 0 0 0 0 0 0 0 0 0 0 0 0 0 0 0 0 0 0 0 0
0 0 0 0 0 0 0 0 0 0 0 0 0 0 0 0 0 0 0 0 0 0 0 0 0 0 0 0 0 0 0 0 0 0 0 0 0 0 0 0 0 0 0 0
0 0 0 0 0 0 0 0 0 0 0 0 0 0 0 0 0 0 0 0 0 0 0 0 0 0 0 0 0 0 0 0 0 0 0 0 0 0 0 0 0 0 0 0
0 0 0 0 0 0 0 0 0 0 0 0 0 0 0 0 0 0 0 0 0 0 0 0 0 0 0 0 0 0 0 0 0 0 0 0 0 0 0 0 0 0 0 0
0 0 0 0 0 0 0 0 0 0 0 0 0 0 0 0 0 0 0 0 0 0 0 0 0 0 0 0 0 0 0 0 0 0 0 0 0 0 0 0 0 0 0 0
0 0 0 0 0 0 0 0 0 0 0 0 0 0 0 0 0 0 0 0 0 0 0 0 0 0 0 0 0 0 0 0 0 0 0 0 0 0 0 0 0 0 0 0
0 0 0 0 0 0 0 0 0 0 0 0 0 0 0 0 0 0 0 0 0 0 0 0 0 0 0 0 0 0 0 0 0 0 0 0 0 0 0 0 0 0 0 0
0 0 0 0 0 0 0 0 0 0 0 0 0 0 0 0 0 0 0 0 0 0 0 0 0 0 0 0 0 0 0 0 0 0 0 0 0 0 0 0 0 0 0 0
0 0 0 0 0 0 0 0 0 0 0 0 0 0 0 0 0 0 0 0 0 0 0 0 0 0 0 0 0 0 0 0 0 0 0 0 0 0 0 0 0 0 0 0
0 0 0 0 0 0 0 0 0 0 0 0 0 0 0 0 0 0 0 0 0 0 0 0 0 0 0 0 0 0 0 0 0 0 0 0 0 0 0 0 0 0 0 0
0 0 0 0 0 0 0 0 0 0 0 0 0 0 0 0 0 0 0 0 0 0 0 0 0 0 0 0 0 0 0 0 0 0 0 0 0 0 0 0 0 0 0 0
0 0 0 0 0 0 0 0 0 0 0 0 0 0 0 0 0 0 0 0 0 0 0 0 0 0 0 0 0 0 0 0 0 0 0 0 0 0 0 0 0 0 0 0
0 0 0 0 0 0 0 0 0 0 0 0 0 0 0 0 0 0 0 0 0 0 0 0 0 0 0 0 0 0 0 0 0 0 0 0 0 0 0 0 0 0 0 0
0 0 0 0 0 0 0 0 0 0 0 0 0 0 0 0 0 0 0 0 0 0 0 0 0 0 0 0 0 0 0 0 0 0 0 0 0 0 0 0 0 0 0 0
0 0 0 0 0 0 0 0 0 0 0 0 0 0 0 0 0 0 0 0 0 0 0 0 0 0 0 0 0 0 0 0 0 0 0 0 0 0 0 0 0 0 0 0
0 0 0 0 0 0 0 0 0 0 0 0 0 0 0 0 0 0 0 0 0 0 0 0 0 0 0 0 0 0 0 0 0 0 0 0 0 0 0 0 0 0 0 0
0 0 0 0 0 0 0 0 0 0 0 0 0 0 0 0 0 0 0 0 0 0 0 0 0 0 0 0 0 0 0 0 0 0 0 0 0 0 0 0 0 0 0 0
Height
5814 5809 5803 5795 5785 5774 5761 5746 5733 5719 5705 5690 5674 5656 5640 5628 5617 5607 5597 5585 5573 5560 5546 5533 5521 5510 5498 5488 5477 5467 5457 5447 5438 5429 5422 5417 5413 5409 5406 5405 5405 5405 5403 5402
5812 5806 5799 5790 5778 5766 5754 5739 5725 5710 5696 5679 5663 5646 5632 5621 5612 5602 5591 5578 5564 5550 5536 5523 5511 5500 5491 5481 5471 5461 5450 5439 5428 5417 5407 5400 5394 5390 5388 5386 5386 5387 5387 5386
5805 5799 5792 5782 5771 5759 5747 5731 5717 5702 5687 5670 5654 5637 5625 5615 5605 5593 5582 5568 5554 5540 5526 5514 5503 5493 5483 5474 5463 5453 5441 5430 5418 5406 5394 5385 5378 5373 5369 5367 5367 5370 5371 5371
5799 5793 5784 5778 5765 5752 5739 5723 5707 5692 5676 5660 5644 5630 5617 5607 5597 5586 5573 5559 5545 5532 5519 5508 5498 5487 5477 5467 5456 5445 5434 5422 5410 5398 5386 5375 5365 5358 5353 5350 5350 5352 5355 5357
5793 5785 5778 5768 5755 5743 5731 5717 5701 5686 5671 5656 5640 5627 5614 5603 5591 5578 5565 5551 5538 5526 5515 5504 5494 5483 5473 5462 5451 5439 5427 5414 5402 5390 5378 5367 5357 5348 5341 5337 5335 5336 5339 5342
5787 5778 5770 5761 5749 5736 5722 5708 5693 5679 5665 5651 5634 5622 5611 5598 5585 5571 5556 5544 5532 5521 5511 5501 5491 5480 5469 5457 5446 5433 5421 5407 5393 5380 5369 5358 5348 5341 5333 5328 5324 5323 5325 5328
5781 5771 5763 5752 5741 5728 5714 5701 5685 5670 5657 5641 5626 5614 5602 5591 5577 5563 5551 5539 5528 5518 5508 5499 5489 5477 5465 5453 5441 5427 5413 5399 5386 5373 5361 5351 5341 5333 5326 5321 5316 5313 5312 5314
5774 5765 5758 5746 5733 5721 5708 5692 5678 5665 5650 5634 5621 5609 5598 5586 5573 5559 5547 5536 5526 5516 5506 5497 5486 5474 5462 5449 5436 5422 5407 5392 5379 5366 5354 5345 5336 5327 5320 5313 5308 5305 5302 5301
5772 5764 5753 5740 5728 5714 5701 5688 5674 5660 5644 5630 5618 5607 5595 5583 5570 5557 5545 5535 5524 5515 5505 5494 5483 5471 5459 5446 5431 5417 5401 5387 5373 5360 5348 5338 5330 5322 5314 5306 5300 5295 5292 5290
5766 5756 5747 5734 5721 5708 5695 5683 5669 5654 5639 5626 5615 5603 5591 5579 5566 5554 5544 5534 5524 5514 5504 5493 5480 5468 5455 5441 5427 5412 5398 5383 5369 5356 5343 5331 5320 5312 5305 5298 5291 5286 5282 5280
5760 5751 5741 5728 5715 5703 5690 5677 5663 5648 5635 5622 5611 5599 5588 5576 5563 5552 5542 5533 5523 5513 5502 5490 5478 5466 5452 5438 5424 5409 5395 5380 5366 5352 5338 5326 5314 5303 5295 5288 5281 5277 5273 5270
5754 5745 5735 5723 5710 5697 5685 5672 5658 5644 5630 5619 5608 5597 5585 5573 5561 5550 5540 5532 5521 5511 5500 5488 5476 5463 5449 5435 5421 5407 5393 5378 5364 5349 5334 5320 5308 5297 5285 5277 5271 5266 5262 5260
5747 5738 5728 5716 5704 5692 5680 5667 5654 5640 5627 5616 5605 5594 5583 5570 5557 5547 5538 5529 5520 5509 5498 5487 5475 5461 5447 5433 5418 5404 5391 5378 5363 5347 5331 5315 5301 5289 5279 5269 5260 5256 5252 5249
5740 5732 5722 5710 5698 5687 5675 5663 5649 5635 5623 5613 5602 5591 5579 5567 5556 5547 5537 5528 5519 5508 5497 5485 5474 5461 5446 5432 5418 5404 5391 5378 5363 5348 5332 5315 5298 5284 5273 5263 5254 5247 5243 5240
5734 5726 5716 5704 5692 5681 5670 5658 5644 5631 5619 5609 5599 5587 5575 5563 5554 5545 5537 5527 5517 5506 5496 5485 5473 5460 5446 5432 5418 5404 5392 5381 5366 5351 5334 5316 5299 5282 5268 5257 5248 5241 5236 5233
5728 5720 5709 5698 5687 5675 5664 5652 5639 5627 5616 5606 5596 5584 5572 5561 5552 5544 5536 5527 5518 5507 5496 5485 5473 5461 5448 5434 5420 5406 5394 5381 5367 5353 5338 5322 5305 5287 5271 5257 5246 5238 5232 5228
5723 5713 5702 5691 5681 5671 5660 5647 5636 5623 5613 5604 5593 5581 5570 5560 5551 5542 5533 5525 5516 5506 5495 5485 5474 5462 5451 5436 5422 5409 5396 5383 5370 5357 5343 5327 5312 5296 5279 5262 5248 5239 5231 5225
5716 5706 5696 5685 5676 5666 5655 5644 5632 5621 5611 5602 5591 5579 5569 5560 5551 5543 5534 5524 5515 5505 5495 5485 5475 5465 5451 5439 5428 5413 5399 5387 5375 5363 5349 5335 5320 5304 5289 5273 5257 5244 5234 5227
5708 5699 5689 5679 5670 5661 5651 5640 5628 5617 5607 5598 5588 5578 5567 5559 5552 5544 5536 5526 5517 5507 5498 5488 5478 5467 5455 5445 5432 5418 5405 5392 5380 5368 5356 5343 5329 5315 5301 5287 5272 5258 5245 5236
5701 5692 5682 5672 5664 5656 5647 5636 5625 5614 5605 5596 5586 5576 5565 5557 5549 5542 5535 5527 5518 5509 5500 5490 5481 5470 5460 5448 5436 5423 5411 5399 5386 5376 5365 5353 5338 5325 5312 5300 5287 5275 5263 5252
5693 5684 5675 5666 5659 5651 5642 5632 5622 5612 5603 5594 5586 5575 5566 5558 5550 5543 5534 5526 5518 5509 5501 5492 5483 5474 5463 5452 5441 5429 5418 5407 5395 5385 5374 5361 5348 5336 5324 5313 5301 5290 5280 5270
5685 5677 5669 5661 5653 5645 5637 5628 5618 5608 5600 5592 5583 5573 5564 5558 5551 5544 5536 5528 5520 5512 5503 5494 5486 5477 5466 5456 5446 5436 5425 5415 5404 5394 5382 5371 5359 5347 5336 5325 5314 5304 5294 5285
5678 5671 5663 5655 5648 5640 5633 5624 5614 5605 5598 5590 5581 5572 5564 5556 5550 5544 5536 5529 5522 5514 5505 5496 5488 5479 5471 5461 5452 5443 5433 5423 5413 5403 5392 5381 5369 5358 5347 5337 5326 5316 5307 5298
5671 5664 5657 5649 5642 5635 5628 5620 5610 5602 5594 5586 5578 5569 5561 5555 5550 5544 5537 5530 5524 5516 5507 5499 5491 5482 5474 5467 5458 5449 5440 5431 5421 5412 5401 5391 5380 5370 5359 5349 5339 5329 5320 5311
5664 5657 5650 5643 5636 5630 5624 5616 5607 5599 5591 5583 5576 5567 5559 5552 5546 5541 5536 5530 5524 5517 5509 5501 5494 5485 5478 5471 5464 5455 5447 5438 5429 5420 5410 5401 5391 5380 5371 5361 5352 5343 5333 5325
5655 5649 5642 5636 5630 5624 5618 5611 5604 5596 5588 5581 5573 5566 5558 5551 5545 5541 5535 5530 5525 5519 5512 5505 5497 5489 5482 5475 5468 5460 5452 5444 5437 5428 5419 5410 5401 5391 5381 5373 5364 5355 5346 5338
5646 5641 5635 5629 5623 5618 5612 5606 5598 5591 5583 5577 5570 5564 5557 5551 5545 5541 5535 5530 5525 5520 5514 5507 5500 5493 5485 5478 5472 5464 5457 5450 5443 5435 5427 5419 5411 5401 5392 5384 5376 5368 5359 5351
Wind_Speed
33 37 43 48 54 59 62 66 69 70 73 76 76 76 71 61 53 51 54 58 62 64 64 61 58 57 56 54 52 52 52 52 51 49 48 48 48 48 48 47 46 43 41 40
35 38 43 49 56 61 66 69 70 71 74 77 77 76 67 57 52 51 57 62 65 66 63 60 56 51 49 48 49 50 52 52 52 51 49 45 43 44 46 47 46 43 41 38
38 40 45 53 59 64 68 69 70 72 74 78 79 72 62 53 51 56 62 66 67 65 61 55 51 51 51 50 51 53 56 56 56 54 51 48 45 41 40 43 43 41 38 37
39 44 50 56 60 65 68 68 70 72 76 79 77 64 56 52 54 59 64 67 65 61 55 52 50 49 50 51 53 56 59 60 57 54 52 49 44 41 37 36 38 39 37 36
43 47 52 59 63 67 69 69 70 73 77 78 72 60 53 53 57 62 65 65 61 57 53 50 49 51 52 54 55 56 58 60 57 55 54 50 44 38 34 31 30 34 37 37
45 50 56 61 65 67 69 69 71 74 77 76 67 57 54 57 61 64 64 60 55 51 49 48 50 52 54 54 55 56 59 61 60 56 55 50 44 38 32 28 26 26 32 37
46 51 56 63 67 69 69 69 71 74 76 72 61 55 57 61 63 64 60 55 51 49 48 49 51 55 56 57 57 59 62 61 59 56 52 49 45 41 35 30 26 23 25 33
47 52 58 64 68 68 67 68 70 73 74 67 58 55 58 62 63 61 56 51 48 47 48 50 53 56 58 59 60 63 65 62 58 55 51 47 44 42 39 33 28 23 22 26
47 52 59 64 67 67 66 67 69 72 73 63 56 56 60 62 62 59 53 48 46 46 49 52 55 57 59 61 62 65 64 62 59 55 51 48 45 42 39 35 31 26 22 22
48 54 61 66 68 66 64 65 69 73 69 60 55 57 61 62 61 55 49 45 44 47 50 53 55 57 61 62 63 64 61 61 60 57 53 50 48 45 40 35 31 28 25 22
49 55 62 66 67 66 64 65 69 71 65 59 56 58 61 61 59 51 45 43 45 49 53 54 55 58 61 62 64 62 60 60 61 60 57 52 48 45 41 36 32 29 26 22
49 55 62 65 66 64 63 65 69 70 63 58 57 60 61 60 56 47 42 44 48 51 54 55 56 59 60 62 63 60 60 60 61 62 60 55 50 44 41 38 33 29 27 25
50 56 62 65 65 63 62 65 68 67 61 56 58 60 61 59 52 44 42 45 49 51 54 55 56 59 60 62 62 58 58 61 63 62 62 58 52 46 40 37 34 29 26 24
51 56 61 63 62 61 62 64 66 65 60 56 58 59 60 56 48 42 42 46 49 51 53 53 55 58 60 61 62 56 56 60 63 63 63 62 56 49 43 36 30 28 23 21
53 56 61 63 61 60 61 63 65 63 58 56 57 59 58 53 45 41 43 46 49 51 51 51 53 58 61 61 63 56 54 56 59 63 63 65 65 58 50 41 33 27 23 19
53 57 61 61 59 59 60 62 64 62 57 55 56 58 56 49 42 40 44 47 48 49 49 49 52 56 59 61 63 57 52 55 58 61 64 65 66 65 58 48 39 31 25 20
53 56 59 59 58 58 59 61 62 60 56 54 55 56 53 46 40 42 45 47 47 48 49 49 51 54 57 60 62 59 53 55 58 60 62 64 66 66 66 58 46 38 30 23
52 55 57 57 56 57 58 60 60 58 54 53 54 54 51 43 39 40 43 45 46 48 49 48 49 52 56 57 58 60 57 55 56 59 61 62 63 65 66 65 59 48 38 30
50 54 56 55 54 55 57 59 59 57 54 52 53 52 48 41 37 39 42 43 44 46 46 46 48 51 53 55 57 58 58 57 56 57 59 60 60 60 62 63 62 61 54 44
50 54 55 53 52 54 56 58 58 55 52 50 51 51 46 39 37 39 41 43 45 45 44 44 46 49 51 54 56 56 57 59 57 56 57 59 60 60 60 60 61 60 59 57
51 55 54 52 51 53 55 57 56 53 50 48 50 48 43 36 35 37 41 44 45 44 43 43 44 47 50 53 54 54 55 57 58 56 55 57 59 59 59 58 58 57 57 56
51 53 52 51 51 52 54 55 55 52 48 47 48 47 41 35 33 35 38 41 41 42 42 42 42 44 48 52 53 53 53 54 56 57 56 56 58 59 59 57 56 55 54 54
51 52 51 50 49 50 51 53 54 52 47 46 47 45 40 34 33 34 36 38 38 40 42 42 40 40 44 48 50 51 51 51 54 55 56 57 57 58 59 59 58 56 54 53
51 51 49 48 47 48 49 51 53 50 45 44 45 44 39 32 30 30 32 34 35 38 40 41 40 38 39 43 46 48 49 50 50 52 54 55 56 57 57 58 58 58 56 54
50 50 49 46 45 46 48 50 51 48 43 42 44 44 39 33 29 28 30 31 32 35 38 40 40 38 37 38 42 45 46 48 49 49 50 51 53 55 56 56 57 57 57 56
50 49 46 44 43 44 46 48 49 46 43 41 43 43 39 33 27 26 27 29 30 32 35 37 38 38 37 36 37 40 43 44 46 47 49 49 49 51 54 55 55 56 56 55
49 47 44 42 41 42 44 46 47 45 41 40 41 41 39 33 27 25 25 26 28 29 32 34 36 36 36 35 35 36 38 41 43 44 46 47 47 49 50 51 53 54 54 54
Wind_Direction
331 334 335 335 334 336 336 333 332 333 333 333 333 333 333 331 330 332 333 332 332 332 331 330 329 329 329 330 330 331 331 330 327 321 311 302 293 286 281 278 278 277 274 272
331 332 335 335 336 337 337 334 333 334 334 334 334 335 336 335 334 333 333 333 333 332 332 332 333 336 337 336 336 336 336 335 332 329 324 316 302 288 280 276 273 271 269 266
331 333 336 337 338 338 337 334 335 335 335 336 337 339 340 339 339 338 336 335 334 334 335 337 339 339 339 341 342 344 344 342 339 334 328 322 317 305 286 273 268 265 263 260
331 334 338 338 339 338 337 336 336 336 337 339 340 343 342 341 341 338 336 335 336 338 340 341 342 344 345 344 343 343 344 342 340 339 337 333 324 316 307 289 269 258 253 252
332 335 336 338 339 337 336 337 337 337 339 341 343 345 344 342 340 338 337 338 340 342 344 346 348 347 345 343 342 343 344 343 340 339 338 337 334 326 315 304 288 266 250 244
331 334 336 337 337 337 337 338 339 339 341 343 345 347 346 344 342 339 339 342 343 346 348 350 350 350 349 347 345 345 344 343 341 339 339 338 336 335 327 316 300 282 260 247
331 334 336 336 337 337 337 339 339 340 343 345 347 347 345 344 342 341 342 344 346 348 351 352 353 352 351 350 348 346 344 343 342 341 340 340 339 338 334 325 313 296 274 255
331 334 336 336 336 336 337 338 340 341 345 347 348 346 345 344 342 342 344 346 348 350 351 351 352 352 352 350 349 347 346 345 343 341 340 339 338 337 335 329 320 307 289 268
330 332 334 335 335 335 336 339 340 342 346 349 348 346 345 344 343 344 346 348 350 351 351 350 350 352 352 351 351 349 349 350 350 348 344 340 337 336 333 329 325 318 302 282
329 331 333 334 334 334 337 339 339 342 347 348 347 346 344 344 344 345 348 350 352 353 354 352 352 352 352 353 353 352 354 354 355 353 349 343 338 335 331 328 324 319 313 299
329 330 332 333 334 334 337 338 338 343 347 347 346 345 345 344 345 347 350 353 355 355 355 354 353 352 353 354 354 356 356 355 356 354 351 347 342 337 332 328 323 317 313 306
328 330 332 333 333 334 336 337 339 345 346 346 345 345 345 345 346 349 352 354 356 356 355 355 354 353 354 355 356 357 358 357 354 353 352 349 345 341 335 330 325 318 313 309
327 330 332 334 334 335 336 336 340 345 345 345 345 345 346 346 348 351 353 354 355 355 355 355 356 356 357 358 358 359 1 0 359 358 357 353 348 344 340 332 326 322 313 306
325 328 332 334 334 335 335 337 342 345 346 345 345 345 346 347 351 353 354 354 354 355 355 357 358 359 360 360 -0 360 0 1 4 4 4 3 358 353 349 345 336 326 319 308
325 328 331 333 334 335 335 338 344 347 346 345 345 346 347 349 352 355 355 355 354 356 356 358 360 1 2 1 2 1 360 0 3 5 7 8 8 4 1 357 353 346 335 323
327 329 331 332 334 334 335 339 346 348 347 346 346 347 348 350 353 354 355 356 356 357 358 359 360 2 3 4 4 4 2 3 5 7 11 13 13 13 10 7 5 1 355 346
328 330 331 334 334 334 336 342 347 347 347 347 347 348 350 352 354 355 355 356 359 359 1 1 1 3 4 7 7 8 8 8 9 10 12 14 16 17 19 18 15 13 10 7
327 330 334 335 334 334 337 343 346 347 348 347 347 349 351 354 356 356 356 359 0 1 3 3 3 3 8 9 7 10 13 12 12 12 14 15 17 19 21 23 26 25 25 24
330 334 336 335 333 334 338 343 345 347 348 347 348 350 352 355 356 357 358 1 2 3 4 5 4 7 10 9 10 13 15 16 15 15 17 18 18 20 23 26 29 33 35 35
332 334 335 334 332 334 339 342 345 348 348 347 349 351 352 354 356 358 360 1 3 3 5 7 7 10 11 12 13 15 17 19 20 18 20 21 22 23 25 28 31 34 37 40
329 333 333 332 332 334 338 341 345 348 347 348 350 351 352 353 356 358 1 2 3 4 6 7 8 10 13 16 15 16 18 21 23 22 22 24 25 26 27 29 32 34 36 39
329 331 331 330 330 333 337 340 344 347 346 348 350 351 351 352 355 359 2 3 4 7 7 8 10 11 16 19 19 18 21 23 25 25 24 27 28 28 29 31 32 34 36 38
328 329 328 328 329 332 336 340 343 345 346 348 350 350 350 351 355 358 1 2 4 8 10 11 12 14 18 21 21 21 22 25 27 27 26 28 31 31 32 33 34 35 35 37
327 327 326 325 327 331 335 339 342 344 343 345 348 350 349 348 350 354 357 359 2 9 12 13 14 15 18 21 22 22 23 25 26 27 28 28 30 33 33 34 35 36 37 38
324 324 322 322 325 330 334 338 340 342 341 343 347 348 347 346 347 351 353 355 359 6 10 13 14 16 16 18 21 23 24 26 27 27 28 28 29 32 33 34 35 36 37 38
321 320 318 320 324 328 332 336 338 339 339 341 345 347 346 344 342 344 347 350 354 0 7 10 12 15 15 14 17 21 24 24 25 27 29 29 29 31 33 34 35 36 37 38
317 316 315 317 322 327 331 334 336 336 336 339 343 346 345 342 338 338 341 344 350 355 2 7 9 12 15 14 15 18 21 23 24 25 27 28 29 32 34 35 36 36 37 38